QPF
0.01 0.01 0.01 0.01 0.01 0.01 0.01 0.01 0.00 0.00 0.00 0.00 0.00 0.00 0.00 0.00 0.00 0.00 0.00 0.01 0.01 0.01 0.01 0.01 0.02 0.01 0.01 0.01 0.01 0.01 0.01 0.01 0.02 0.03 0.05 0.05 0.04 0.05 0.07 0.09 0.09 0.08 0.08 0.08
0.02 0.01 0.00 0.00 0.00 0.01 0.01 0.01 0.01 0.00 0.00 0.00 0.00 0.00 0.00 0.00 0.00 0.00 0.00 0.00 0.00 0.01 0.01 0.01 0.01 0.02 0.02 0.01 0.01 0.01 0.01 0.01 0.02 0.02 0.03 0.05 0.04 0.04 0.06 0.07 0.08 0.08 0.06 0.06
0.01 0.01 0.00 0.00 0.00 0.01 0.01 0.01 0.01 0.01 0.01 0.01 0.01 0.01 0.01 0.00 0.00 0.00 0.00 0.00 0.00 0.00 0.00 0.00 0.01 0.01 0.02 0.01 0.01 0.01 0.01 0.01 0.02 0.02 0.02 0.06 0.07 0.04 0.05 0.07 0.08 0.08 0.08 0.06
0.01 0.01 0.01 0.01 0.01 0.01 0.01 0.01 0.01 0.01 0.01 0.02 0.01 0.02 0.01 0.00 0.00 0.00 0.00 0.00 0.00 0.00 0.00 0.00 0.00 0.01 0.01 0.01 0.01 0.01 0.01 0.02 0.02 0.02 0.02 0.04 0.08 0.05 0.04 0.05 0.07 0.08 0.07 0.07
0.00 0.00 0.01 0.01 0.01 0.01 0.01 0.01 0.01 0.01 0.01 0.02 0.02 0.02 0.01 0.00 0.00 0.00 0.00 0.00 0.00 0.00 0.00 0.00 0.00 0.01 0.01 0.01 0.01 0.01 0.01 0.02 0.02 0.02 0.03 0.03 0.07 0.07 0.04 0.04 0.06 0.09 0.09 0.09
0.00 0.00 0.01 0.00 0.00 0.01 0.01 0.01 0.02 0.02 0.03 0.03 0.02 0.01 0.01 0.00 0.00 0.00 0.00 0.00 0.00 0.00 0.00 0.00 0.00 0.01 0.01 0.01 0.01 0.01 0.01 0.01 0.01 0.02 0.02 0.03 0.05 0.07 0.05 0.04 0.04 0.06 0.09 0.10
0.01 0.00 0.01 0.01 0.00 0.01 0.02 0.03 0.05 0.07 0.06 0.03 0.01 0.01 0.01 0.00 0.01 0.01 0.01 0.01 0.01 0.01 0.01 0.02 0.02 0.01 0.01 0.01 0.01 0.01 0.01 0.01 0.01 0.01 0.02 0.02 0.03 0.05 0.06 0.05 0.04 0.04 0.06 0.08
0.01 0.00 0.00 0.00 0.01 0.01 0.01 0.02 0.03 0.03 0.02 0.01 0.00 0.01 0.01 0.01 0.01 0.01 0.01 0.01 0.01 0.01 0.01 0.03 0.03 0.02 0.01 0.01 0.01 0.01 0.01 0.01 0.01 0.01 0.01 0.01 0.02 0.02 0.03 0.04 0.04 0.04 0.04 0.05
0.01 0.01 0.00 0.00 0.00 0.01 0.01 0.02 0.02 0.02 0.02 0.01 0.01 0.00 0.00 0.00 0.01 0.01 0.01 0.01 0.01 0.01 0.01 0.01 0.02 0.02 0.01 0.01 0.00 0.00 0.01 0.01 0.01 0.01 0.01 0.01 0.01 0.02 0.02 0.02 0.03 0.03 0.03 0.03
0.01 0.01 0.00 0.00 0.00 0.01 0.01 0.01 0.02 0.04 0.04 0.02 0.01 0.00 0.00 0.00 0.00 0.00 0.01 0.01 0.01 0.01 0.01 0.01 0.01 0.01 0.01 0.01 0.01 0.01 0.01 0.01 0.01 0.01 0.01 0.01 0.01 0.01 0.01 0.02 0.02 0.02 0.03 0.03
0.01 0.01 0.01 0.00 0.01 0.01 0.01 0.02 0.03 0.03 0.03 0.02 0.02 0.01 0.00 0.00 0.00 0.00 0.01 0.01 0.01 0.01 0.01 0.01 0.01 0.01 0.01 0.01 0.01 0.01 0.01 0.01 0.01 0.01 0.01 0.01 0.02 0.01 0.01 0.02 0.02 0.02 0.03 0.03
0.01 0.02 0.01 0.01 0.01 0.01 0.01 0.01 0.02 0.03 0.02 0.02 0.02 0.01 0.00 0.01 0.01 0.01 0.01 0.01 0.01 0.01 0.01 0.01 0.01 0.01 0.01 0.01 0.01 0.01 0.01 0.01 0.01 0.01 0.01 0.02 0.02 0.02 0.01 0.01 0.02 0.02 0.02 0.02
0.01 0.02 0.02 0.01 0.01 0.01 0.01 0.01 0.02 0.02 0.03 0.03 0.02 0.01 0.01 0.01 0.01 0.01 0.01 0.01 0.01 0.01 0.01 0.01 0.01 0.01 0.01 0.01 0.01 0.01 0.01 0.01 0.01 0.01 0.01 0.02 0.02 0.02 0.02 0.01 0.02 0.02 0.01 0.01
0.02 0.03 0.02 0.02 0.01 0.01 0.01 0.01 0.02 0.03 0.04 0.03 0.02 0.01 0.01 0.01 0.00 0.01 0.01 0.01 0.01 0.01 0.01 0.01 0.01 0.01 0.01 0.01 0.01 0.01 0.01 0.01 0.01 0.01 0.01 0.01 0.02 0.03 0.03 0.01 0.01 0.02 0.02 0.01
0.01 0.02 0.01 0.01 0.01 0.01 0.01 0.01 0.01 0.01 0.02 0.02 0.02 0.01 0.01 0.01 0.01 0.01 0.01 0.01 0.01 0.01 0.01 0.01 0.02 0.02 0.02 0.01 0.01 0.01 0.01 0.01 0.01 0.01 0.01 0.02 0.02 0.02 0.03 0.02 0.01 0.02 0.02 0.02
0.02 0.02 0.01 0.01 0.00 0.01 0.01 0.01 0.01 0.01 0.01 0.01 0.01 0.01 0.01 0.01 0.01 0.01 0.01 0.01 0.01 0.01 0.01 0.01 0.01 0.01 0.02 0.02 0.02 0.02 0.02 0.01 0.01 0.01 0.02 0.02 0.02 0.02 0.02 0.02 0.02 0.01 0.02 0.01
0.01 0.01 0.02 0.01 0.00 0.01 0.01 0.01 0.01 0.01 0.01 0.01 0.01 0.01 0.01 0.01 0.01 0.01 0.01 0.01 0.01 0.01 0.01 0.01 0.01 0.01 0.01 0.02 0.02 0.02 0.02 0.02 0.02 0.02 0.02 0.02 0.02 0.02 0.02 0.02 0.02 0.02 0.02 0.02
0.01 0.01 0.02 0.01 0.01 0.01 0.00 0.00 0.01 0.01 0.01 0.01 0.01 0.01 0.01 0.01 0.01 0.01 0.01 0.01 0.01 0.01 0.01 0.01 0.01 0.01 0.01 0.01 0.02 0.01 0.01 0.01 0.01 0.01 0.02 0.02 0.03 0.03 0.03 0.03 0.02 0.02 0.01 0.01
0.01 0.02 0.02 0.02 0.01 0.00 0.00 0.00 0.01 0.01 0.01 0.01 0.01 0.01 0.01 0.01 0.01 0.01 0.01 0.01 0.01 0.01 0.01 0.01 0.01 0.01 0.01 0.01 0.01 0.01 0.01 0.01 0.01 0.01 0.02 0.02 0.02 0.02 0.02 0.03 0.03 0.02 0.02 0.01
0.01 0.01 0.02 0.02 0.02 0.01 0.00 0.00 0.01 0.01 0.01 0.01 0.01 0.01 0.01 0.01 0.02 0.01 0.01 0.01 0.01 0.01 0.01 0.01 0.01 0.01 0.01 0.01 0.01 0.01 0.01 0.01 0.01 0.01 0.01 0.02 0.02 0.02 0.02 0.02 0.02 0.02 0.02 0.01
0.01 0.01 0.02 0.02 0.02 0.01 0.01 0.00 0.00 0.01 0.01 0.01 0.01 0.01 0.01 0.01 0.02 0.02 0.01 0.01 0.01 0.01 0.01 0.01 0.01 0.01 0.01 0.01 0.01 0.01 0.01 0.01 0.01 0.01 0.01 0.02 0.02 0.02 0.02 0.02 0.02 0.01 0.01 0.01
0.00 0.01 0.01 0.01 0.02 0.01 0.01 0.00 0.01 0.01 0.01 0.01 0.01 0.01 0.01 0.01 0.01 0.01 0.01 0.01 0.01 0.01 0.01 0.01 0.01 0.01 0.01 0.01 0.01 0.01 0.01 0.01 0.01 0.01 0.02 0.02 0.02 0.02 0.02 0.01 0.01 0.01 0.01 0.01
0.01 0.01 0.01 0.01 0.01 0.01 0.01 0.01 0.01 0.01 0.01 0.01 0.01 0.01 0.01 0.01 0.01 0.01 0.01 0.01 0.01 0.01 0.01 0.01 0.01 0.01 0.01 0.01 0.01 0.01 0.01 0.01 0.02 0.02 0.02 0.02 0.02 0.02 0.02 0.01 0.01 0.01 0.01 0.01
0.01 0.01 0.01 0.01 0.01 0.01 0.01 0.01 0.00 0.01 0.01 0.01 0.01 0.01 0.01 0.01 0.00 0.00 0.00 0.00 0.01 0.01 0.01 0.01 0.01 0.01 0.01 0.01 0.01 0.01 0.01 0.02 0.02 0.02 0.02 0.02 0.02 0.02 0.02 0.02 0.01 0.01 0.01 0.01
0.01 0.01 0.01 0.01 0.01 0.01 0.01 0.00 0.00 0.01 0.01 0.01 0.01 0.01 0.01 0.01 0.01 0.00 0.01 0.01 0.01 0.01 0.01 0.01 0.01 0.01 0.01 0.01 0.01 0.01 0.02 0.02 0.02 0.02 0.02 0.02 0.02 0.02 0.02 0.02 0.02 0.02 0.02 0.02
0.00 0.01 0.01 0.01 0.01 0.01 0.00 0.00 0.00 0.01 0.01 0.01 0.01 0.01 0.01 0.01 0.01 0.01 0.01 0.01 0.01 0.01 0.01 0.01 0.01 0.01 0.01 0.01 0.01 0.02 0.02 0.02 0.02 0.02 0.02 0.02 0.02 0.02 0.02 0.01 0.02 0.02 0.02 0.02
MSLP
1015.76 1016.04 1016.37 1016.71 1017.03 1017.29 1017.49 1017.63 1017.75 1017.89 1018.12 1018.47 1019.00 1019.70 1020.55 1021.52 1022.54 1023.53 1024.44 1025.22 1025.84 1026.29 1026.58 1026.73 1026.76 1026.71 1026.58 1026.38 1026.13 1025.85 1025.54 1025.24 1024.99 1024.82 1024.76 1024.83 1025.03 1025.34 1025.72 1026.14 1026.54 1026.88 1027.14 1027.31
1015.81 1016.03 1016.33 1016.66 1017.00 1017.30 1017.54 1017.70 1017.82 1017.93 1018.08 1018.35 1018.76 1019.36 1020.12 1021.04 1022.04 1023.06 1024.03 1024.90 1025.62 1026.17 1026.56 1026.80 1026.91 1026.91 1026.82 1026.66 1026.44 1026.18 1025.89 1025.59 1025.32 1025.10 1024.98 1024.97 1025.07 1025.29 1025.60 1025.96 1026.33 1026.68 1026.96 1027.18
1016.04 1016.19 1016.43 1016.74 1017.06 1017.36 1017.59 1017.74 1017.82 1017.87 1017.95 1018.12 1018.43 1018.93 1019.63 1020.51 1021.51 1022.57 1023.61 1024.58 1025.41 1026.07 1026.56 1026.87 1027.05 1027.10 1027.06 1026.94 1026.76 1026.53 1026.26 1025.97 1025.69 1025.43 1025.24 1025.13 1025.13 1025.23 1025.44 1025.71 1026.03 1026.36 1026.67 1026.92
1016.46 1016.53 1016.71 1016.96 1017.23 1017.49 1017.68 1017.79 1017.81 1017.79 1017.79 1017.88 1018.11 1018.55 1019.20 1020.08 1021.11 1022.23 1023.36 1024.42 1025.35 1026.11 1026.67 1027.05 1027.27 1027.36 1027.35 1027.26 1027.12 1026.92 1026.67 1026.39 1026.09 1025.79 1025.52 1025.32 1025.19 1025.17 1025.26 1025.44 1025.69 1025.99 1026.30 1026.59
1017.05 1017.06 1017.16 1017.33 1017.54 1017.72 1017.84 1017.88 1017.84 1017.75 1017.68 1017.71 1017.90 1018.31 1018.97 1019.87 1020.95 1022.14 1023.36 1024.51 1025.52 1026.35 1026.96 1027.38 1027.62 1027.72 1027.72 1027.64 1027.51 1027.33 1027.10 1026.83 1026.51 1026.17 1025.84 1025.53 1025.29 1025.14 1025.11 1025.19 1025.37 1025.63 1025.93 1026.25
1017.78 1017.73 1017.77 1017.86 1017.97 1018.07 1018.10 1018.06 1017.95 1017.80 1017.69 1017.69 1017.87 1018.30 1018.99 1019.94 1021.09 1022.36 1023.66 1024.88 1025.95 1026.81 1027.45 1027.86 1028.09 1028.17 1028.15 1028.07 1027.94 1027.76 1027.54 1027.27 1026.94 1026.57 1026.17 1025.79 1025.44 1025.19 1025.04 1025.02 1025.13 1025.34 1025.63 1025.97
1018.62 1018.54 1018.50 1018.51 1018.53 1018.53 1018.47 1018.35 1018.18 1017.99 1017.86 1017.86 1018.07 1018.53 1019.27 1020.29 1021.51 1022.85 1024.20 1025.47 1026.57 1027.44 1028.07 1028.46 1028.65 1028.69 1028.64 1028.53 1028.38 1028.20 1027.98 1027.71 1027.38 1026.99 1026.55 1026.10 1025.68 1025.34 1025.10 1025.00 1025.04 1025.20 1025.47 1025.79
1019.56 1019.44 1019.35 1019.27 1019.20 1019.10 1018.96 1018.77 1018.55 1018.34 1018.21 1018.23 1018.48 1018.99 1019.79 1020.87 1022.14 1023.52 1024.90 1026.19 1027.29 1028.14 1028.74 1029.08 1029.23 1029.23 1029.13 1028.99 1028.83 1028.64 1028.42 1028.16 1027.83 1027.43 1026.98 1026.50 1026.03 1025.62 1025.32 1025.15 1025.12 1025.24 1025.46 1025.76
1020.58 1020.43 1020.28 1020.13 1019.97 1019.78 1019.56 1019.32 1019.06 1018.84 1018.73 1018.78 1019.06 1019.62 1020.47 1021.57 1022.87 1024.26 1025.64 1026.91 1027.99 1028.81 1029.36 1029.67 1029.77 1029.73 1029.60 1029.43 1029.25 1029.07 1028.85 1028.60 1028.29 1027.90 1027.45 1026.96 1026.47 1026.03 1025.69 1025.47 1025.39 1025.45 1025.62 1025.87
1021.68 1021.50 1021.29 1021.06 1020.82 1020.56 1020.28 1019.98 1019.71 1019.49 1019.39 1019.47 1019.79 1020.37 1021.23 1022.33 1023.61 1024.97 1026.32 1027.54 1028.58 1029.36 1029.88 1030.15 1030.23 1030.17 1030.03 1029.85 1029.67 1029.48 1029.28 1029.05 1028.75 1028.39 1027.96 1027.49 1027.01 1026.56 1026.19 1025.94 1025.81 1025.81 1025.92 1026.10
1022.84 1022.61 1022.35 1022.06 1021.75 1021.43 1021.10 1020.78 1020.49 1020.28 1020.20 1020.29 1020.62 1021.19 1022.02 1023.08 1024.30 1025.59 1026.86 1028.03 1029.01 1029.75 1030.25 1030.51 1030.59 1030.54 1030.41 1030.24 1030.07 1029.90 1029.72 1029.50 1029.23 1028.90 1028.50 1028.05 1027.59 1027.15 1026.78 1026.50 1026.34 1026.28 1026.32 1026.41
1024.02 1023.75 1023.44 1023.10 1022.74 1022.38 1022.02 1021.69 1021.40 1021.21 1021.13 1021.23 1021.53 1022.07 1022.83 1023.81 1024.92 1026.11 1027.29 1028.37 1029.29 1030.00 1030.49 1030.77 1030.88 1030.86 1030.76 1030.63 1030.48 1030.33 1030.16 1029.96 1029.71 1029.41 1029.04 1028.62 1028.18 1027.77 1027.40 1027.11 1026.91 1026.80 1026.77 1026.78
1025.16 1024.87 1024.52 1024.14 1023.76 1023.38 1023.03 1022.71 1022.44 1022.26 1022.20 1022.28 1022.55 1023.01 1023.68 1024.53 1025.51 1026.56 1027.62 1028.61 1029.46 1030.15 1030.65 1030.97 1031.13 1031.16 1031.12 1031.03 1030.91 1030.78 1030.62 1030.43 1030.19 1029.90 1029.55 1029.16 1028.76 1028.36 1028.01 1027.71 1027.49 1027.34 1027.24 1027.18
1026.22 1025.91 1025.55 1025.17 1024.79 1024.43 1024.10 1023.82 1023.59 1023.44 1023.38 1023.45 1023.66 1024.04 1024.58 1025.28 1026.10 1027.00 1027.92 1028.80 1029.60 1030.26 1030.78 1031.14 1031.36 1031.47 1031.49 1031.45 1031.36 1031.25 1031.09 1030.90 1030.66 1030.37 1030.04 1029.67 1029.29 1028.92 1028.58 1028.28 1028.04 1027.85 1027.71 1027.58
1027.14 1026.84 1026.50 1026.14 1025.80 1025.49 1025.22 1024.99 1024.82 1024.70 1024.66 1024.70 1024.85 1025.13 1025.53 1026.07 1026.72 1027.45 1028.22 1028.99 1029.72 1030.37 1030.90 1031.31 1031.60 1031.78 1031.87 1031.88 1031.82 1031.72 1031.56 1031.36 1031.12 1030.83 1030.50 1030.15 1029.78 1029.43 1029.10 1028.82 1028.57 1028.36 1028.18 1028.01
1027.91 1027.64 1027.34 1027.04 1026.76 1026.52 1026.32 1026.17 1026.07 1026.00 1025.98 1026.00 1026.09 1026.26 1026.52 1026.89 1027.36 1027.92 1028.54 1029.20 1029.85 1030.46 1031.01 1031.46 1031.82 1032.07 1032.22 1032.28 1032.26 1032.17 1032.01 1031.81 1031.55 1031.26 1030.93 1030.59 1030.25 1029.92 1029.61 1029.33 1029.08 1028.85 1028.65 1028.46
1028.55 1028.34 1028.09 1027.86 1027.65 1027.50 1027.39 1027.32 1027.28 1027.27 1027.26 1027.27 1027.30 1027.37 1027.50 1027.70 1028.00 1028.38 1028.85 1029.39 1029.96 1030.53 1031.07 1031.56 1031.97 1032.28 1032.49 1032.60 1032.62 1032.56 1032.41 1032.21 1031.96 1031.67 1031.35 1031.03 1030.71 1030.39 1030.10 1029.83 1029.59 1029.36 1029.14 1028.93
1029.13 1028.96 1028.78 1028.61 1028.48 1028.40 1028.37 1028.38 1028.40 1028.43 1028.44 1028.43 1028.40 1028.37 1028.37 1028.43 1028.56 1028.79 1029.11 1029.52 1030.00 1030.52 1031.05 1031.56 1032.01 1032.37 1032.64 1032.81 1032.87 1032.84 1032.73 1032.54 1032.31 1032.04 1031.75 1031.46 1031.16 1030.88 1030.61 1030.35 1030.11 1029.88 1029.66 1029.44
1029.71 1029.60 1029.46 1029.35 1029.27 1029.24 1029.27 1029.32 1029.38 1029.43 1029.44 1029.40 1029.32 1029.21 1029.10 1029.02 1029.01 1029.08 1029.27 1029.56 1029.95 1030.41 1030.92 1031.42 1031.90 1032.31 1032.63 1032.85 1032.97 1032.99 1032.93 1032.79 1032.60 1032.37 1032.13 1031.87 1031.62 1031.36 1031.12 1030.88 1030.65 1030.43 1030.20 1029.98
1030.38 1030.29 1030.18 1030.09 1030.03 1030.03 1030.07 1030.13 1030.20 1030.24 1030.23 1030.16 1030.02 1029.84 1029.63 1029.44 1029.31 1029.26 1029.32 1029.50 1029.80 1030.20 1030.66 1031.16 1031.64 1032.08 1032.45 1032.73 1032.91 1033.00 1032.99 1032.92 1032.79 1032.63 1032.44 1032.24 1032.04 1031.83 1031.62 1031.41 1031.19 1030.97 1030.74 1030.52
1031.16 1031.07 1030.96 1030.86 1030.80 1030.77 1030.79 1030.83 1030.87 1030.88 1030.83 1030.72 1030.53 1030.28 1029.99 1029.72 1029.48 1029.33 1029.29 1029.38 1029.59 1029.92 1030.34 1030.80 1031.28 1031.74 1032.14 1032.46 1032.70 1032.86 1032.93 1032.93 1032.88 1032.79 1032.67 1032.54 1032.39 1032.23 1032.06 1031.88 1031.68 1031.48 1031.26 1031.04
1032.01 1031.92 1031.79 1031.66 1031.55 1031.48 1031.44 1031.43 1031.41 1031.36 1031.27 1031.10 1030.86 1030.56 1030.23 1029.89 1029.58 1029.36 1029.24 1029.25 1029.38 1029.64 1030.00 1030.43 1030.88 1031.33 1031.75 1032.10 1032.39 1032.60 1032.73 1032.81 1032.83 1032.81 1032.77 1032.71 1032.62 1032.52 1032.40 1032.26 1032.09 1031.91 1031.71 1031.50
1032.87 1032.76 1032.60 1032.44 1032.27 1032.14 1032.03 1031.94 1031.85 1031.74 1031.58 1031.37 1031.09 1030.75 1030.38 1030.01 1029.67 1029.40 1029.23 1029.18 1029.25 1029.44 1029.74 1030.11 1030.52 1030.94 1031.35 1031.71 1032.01 1032.26 1032.44 1032.57 1032.66 1032.71 1032.73 1032.73 1032.71 1032.66 1032.59 1032.49 1032.37 1032.22 1032.06 1031.88
1033.62 1033.50 1033.32 1033.12 1032.91 1032.71 1032.53 1032.37 1032.20 1032.02 1031.81 1031.55 1031.24 1030.89 1030.52 1030.14 1029.80 1029.51 1029.31 1029.22 1029.24 1029.38 1029.61 1029.91 1030.27 1030.64 1031.00 1031.34 1031.64 1031.89 1032.10 1032.26 1032.38 1032.48 1032.54 1032.59 1032.62 1032.62 1032.60 1032.56 1032.48 1032.38 1032.27 1032.13
1034.13 1034.02 1033.85 1033.63 1033.40 1033.16 1032.92 1032.69 1032.46 1032.23 1031.97 1031.68 1031.36 1031.01 1030.65 1030.29 1029.97 1029.69 1029.50 1029.39 1029.38 1029.47 1029.64 1029.88 1030.16 1030.47 1030.77 1031.06 1031.33 1031.55 1031.75 1031.91 1032.04 1032.15 1032.24 1032.32 1032.38 1032.42 1032.44 1032.44 1032.42 1032.38 1032.31 1032.24
1034.33 1034.25 1034.10 1033.90 1033.67 1033.41 1033.14 1032.88 1032.61 1032.33 1032.04 1031.73 1031.41 1031.08 1030.75 1030.43 1030.15 1029.91 1029.74 1029.64 1029.62 1029.67 1029.80 1029.98 1030.20 1030.43 1030.67 1030.89 1031.10 1031.28 1031.43 1031.56 1031.68 1031.77 1031.86 1031.94 1032.01 1032.08 1032.13 1032.17 1032.19 1032.20 1032.20 1032.18
Thickness
5551 5555 5554 5554 5553 5555 5557 5558 5559 5556 5543 5542 5547 5550 5549 5544 5539 5538 5538 5537 5535 5534 5532 5529 5528 5528 5529 5530 5532 5533 5534 5535 5536 5538 5540 5541 5541 5540 5540 5540 5541 5543 5545 5547
5546 5542 5539 5538 5539 5540 5543 5545 5549 5541 5530 5532 5536 5541 5540 5537 5533 5531 5530 5529 5526 5524 5522 5520 5519 5519 5519 5520 5521 5522 5524 5525 5526 5527 5528 5530 5530 5529 5530 5529 5531 5533 5535 5537
5540 5530 5526 5527 5529 5531 5531 5535 5535 5530 5521 5517 5521 5543 5538 5530 5523 5520 5519 5519 5517 5515 5514 5512 5510 5510 5510 5510 5510 5511 5513 5514 5515 5515 5517 5518 5519 5519 5520 5520 5521 5522 5524 5526
5521 5516 5516 5519 5519 5521 5527 5518 5515 5513 5518 5525 5515 5539 5543 5526 5518 5516 5514 5511 5509 5506 5504 5503 5501 5501 5500 5500 5499 5500 5501 5502 5503 5504 5506 5509 5510 5512 5511 5511 5511 5512 5513 5516
5510 5504 5507 5509 5509 5508 5510 5502 5502 5502 5505 5508 5506 5511 5541 5515 5514 5514 5510 5504 5500 5497 5495 5493 5492 5491 5490 5488 5488 5489 5490 5491 5492 5493 5494 5497 5498 5499 5499 5499 5500 5501 5502 5504
5494 5490 5491 5494 5492 5493 5491 5492 5490 5490 5496 5503 5503 5505 5532 5520 5512 5510 5504 5498 5491 5487 5484 5482 5481 5479 5478 5477 5477 5478 5479 5480 5481 5482 5483 5484 5485 5486 5487 5488 5489 5490 5491 5492
5490 5485 5480 5480 5485 5484 5485 5493 5501 5502 5502 5512 5486 5489 5512 5506 5499 5495 5491 5488 5482 5477 5473 5471 5469 5468 5467 5467 5467 5467 5468 5469 5469 5470 5471 5472 5472 5474 5476 5476 5477 5477 5479 5481
5490 5490 5475 5470 5476 5480 5478 5485 5497 5504 5510 5512 5478 5490 5504 5490 5483 5479 5475 5472 5469 5466 5463 5459 5457 5456 5456 5456 5455 5455 5456 5457 5457 5458 5459 5459 5460 5461 5462 5463 5464 5465 5466 5468
5484 5478 5459 5457 5458 5465 5468 5473 5469 5474 5461 5475 5498 5490 5485 5478 5473 5470 5466 5462 5459 5455 5451 5448 5445 5444 5443 5443 5443 5443 5443 5444 5444 5445 5445 5446 5447 5448 5449 5450 5451 5452 5453 5454
5463 5458 5451 5446 5449 5448 5454 5457 5457 5462 5472 5487 5495 5489 5494 5475 5470 5464 5458 5453 5449 5444 5440 5437 5435 5432 5431 5430 5430 5430 5430 5431 5431 5431 5432 5433 5433 5435 5436 5437 5438 5439 5439 5440
5446 5447 5441 5440 5440 5448 5440 5440 5447 5454 5454 5472 5484 5493 5473 5465 5459 5454 5448 5442 5437 5432 5429 5425 5423 5421 5419 5418 5418 5418 5418 5418 5418 5419 5419 5420 5421 5422 5423 5424 5425 5426 5427 5427
5435 5441 5440 5435 5422 5416 5426 5435 5437 5450 5445 5441 5461 5473 5447 5441 5437 5434 5431 5426 5422 5418 5415 5412 5410 5409 5408 5408 5407 5406 5406 5406 5407 5407 5407 5408 5409 5410 5411 5412 5413 5414 5414 5415
5423 5426 5436 5440 5423 5407 5409 5412 5410 5415 5428 5434 5448 5464 5430 5423 5421 5418 5416 5413 5410 5405 5402 5400 5399 5398 5397 5396 5396 5395 5395 5394 5394 5395 5396 5397 5397 5398 5399 5400 5400 5401 5402 5403
5416 5415 5428 5445 5440 5419 5406 5400 5396 5404 5422 5432 5437 5448 5432 5423 5417 5412 5406 5402 5398 5394 5391 5389 5388 5387 5385 5384 5384 5384 5383 5382 5382 5383 5384 5385 5385 5386 5387 5387 5388 5388 5389 5390
5405 5408 5398 5399 5397 5396 5399 5398 5391 5393 5410 5419 5430 5420 5425 5417 5408 5402 5397 5391 5387 5384 5381 5378 5377 5376 5375 5373 5373 5372 5372 5371 5371 5371 5372 5372 5372 5373 5374 5374 5375 5376 5377 5378
5389 5391 5383 5384 5381 5378 5382 5391 5389 5387 5393 5398 5399 5405 5408 5398 5391 5388 5385 5380 5377 5375 5372 5368 5367 5366 5364 5363 5362 5361 5361 5360 5359 5360 5360 5360 5360 5360 5361 5362 5362 5363 5364 5365
5379 5376 5383 5396 5370 5373 5395 5397 5386 5383 5383 5386 5392 5400 5390 5383 5379 5377 5374 5370 5367 5364 5361 5358 5357 5355 5354 5352 5351 5350 5349 5349 5348 5348 5348 5348 5348 5348 5348 5349 5349 5350 5351 5352
5364 5368 5372 5376 5369 5381 5408 5374 5376 5373 5372 5368 5373 5374 5370 5367 5364 5360 5357 5357 5356 5353 5351 5348 5346 5344 5343 5341 5339 5339 5338 5337 5336 5336 5336 5336 5336 5336 5336 5337 5337 5338 5339 5339
5356 5360 5364 5365 5374 5389 5388 5364 5354 5355 5365 5359 5356 5357 5353 5348 5348 5356 5349 5343 5342 5340 5339 5336 5334 5332 5331 5329 5328 5327 5326 5325 5325 5325 5324 5324 5325 5325 5325 5325 5325 5326 5326 5326
5338 5343 5354 5353 5363 5378 5388 5351 5340 5346 5363 5353 5342 5341 5339 5335 5350 5358 5338 5331 5328 5326 5324 5323 5321 5320 5319 5317 5315 5315 5314 5314 5314 5313 5312 5312 5312 5313 5313 5313 5313 5313 5313 5313
5337 5337 5341 5346 5351 5370 5354 5330 5332 5352 5361 5337 5331 5329 5325 5326 5333 5328 5320 5318 5316 5313 5312 5311 5309 5308 5307 5305 5303 5303 5303 5302 5301 5300 5300 5300 5300 5301 5301 5301 5300 5300 5300 5300
5344 5341 5333 5335 5339 5356 5329 5322 5332 5340 5325 5319 5317 5314 5312 5312 5310 5307 5306 5305 5304 5302 5300 5298 5297 5296 5295 5293 5291 5292 5291 5290 5288 5287 5287 5288 5288 5288 5288 5288 5288 5287 5287 5288
5332 5337 5339 5338 5348 5333 5318 5318 5313 5308 5308 5307 5305 5300 5297 5296 5297 5296 5294 5293 5291 5290 5288 5286 5284 5284 5283 5281 5280 5279 5279 5276 5275 5275 5275 5275 5275 5275 5275 5275 5275 5275 5275 5276
5317 5305 5313 5315 5326 5315 5307 5301 5297 5294 5293 5292 5289 5286 5285 5285 5285 5283 5282 5280 5279 5278 5275 5273 5272 5271 5270 5269 5267 5266 5265 5264 5263 5263 5263 5263 5263 5264 5263 5263 5264 5264 5264 5265
5318 5297 5300 5305 5309 5302 5300 5293 5289 5284 5279 5277 5275 5274 5273 5273 5273 5271 5269 5268 5267 5265 5263 5261 5259 5259 5258 5256 5255 5253 5252 5251 5251 5251 5251 5251 5252 5252 5252 5252 5252 5252 5252 5253
5302 5297 5302 5316 5308 5300 5300 5287 5279 5274 5271 5268 5266 5265 5264 5262 5261 5260 5258 5256 5254 5252 5251 5249 5248 5246 5245 5244 5242 5241 5240 5239 5239 5239 5240 5240 5241 5240 5240 5240 5240 5239 5240 5241